Location: Weatherford
(35.5260°N, 98.7070°W)
Time: 23:23:38
(UTC-05:00)

OPAL - Visible Passes

Search period start: 07 July 2015 00:00
Search period end: 17 July 2015 00:00
Orbit: 743 x 796 km, 100.2° (Epoch: 07 July)

Date Brightness Start Highest point End Pass type
(mag) Time Alt. Az. Time Alt. Az. Time Alt. Az.
07 Jul 7.4 22:12:10 10° NNE 22:17:08 70° ESE 22:22:03 10° S visible
07 Jul 10.3 23:53:27 10° NW 23:55:30 12° WNW 23:57:18 10° W visible
08 Jul 8.3 21:37:21 10° NE 21:41:36 29° E 21:45:56 10° SSE visible
08 Jul 9.4 23:16:17 10° N 23:20:27 27° WNW 23:24:31 10° WSW visible
09 Jul 7.9 22:40:21 10° N 22:45:16 62° WNW 22:50:08 10° SSW visible
10 Jul 7.5 22:05:03 10° NNE 22:09:54 55° ESE 22:14:46 10° S visible
10 Jul 10.2 23:45:30 10° NNW 23:48:24 15° WNW 23:51:05 10° W visible
11 Jul 8.6 21:30:28 10° NE 21:34:20 23° E 21:38:19 10° SSE visible
11 Jul 9.0 23:08:52 10° N 23:13:19 33° WNW 23:17:41 10° SW visible
12 Jul 7.5 22:33:06 10° NNE 22:38:04 78° WNW 22:43:01 10° SSW visible
13 Jul 7.8 21:57:57 10° NNE 22:02:40 44° E 22:07:23 10° S visible
13 Jul 9.9 23:37:49 10° NNW 23:41:17 19° WNW 23:44:36 10° WSW visible
14 Jul 8.8 21:23:42 10° NE 21:27:02 19° E 21:30:33 10° SE visible
14 Jul 8.6 23:01:30 10° N 23:06:10 41° WNW 23:10:46 10° SW visible
15 Jul 7.3 22:25:54 10° NNE 22:30:53 84° ESE 22:35:38 11° SSW visible
16 Jul 10.5 00:08:31 10° NW 00:09:11 10° WNW 00:09:32 10° WNW visible
16 Jul 8.1 21:50:56 10° NE 21:55:25 35° E 21:59:37 12° SSE visible
16 Jul 9.6 23:30:15 10° NNW 23:34:09 23° WNW 23:37:57 10° WSW visible
